Preview of NWS' New Version of Forecast
This preview is not operational and should not be used for support decisions.

Regional Weather Roundup (RWR)

Issued by National Weather Service (NWS)

                            
000
ASUS46 KSEW 190510
RWRWA 

WASHINGTON REGIONAL WEATHER ROUNDUP
NATIONAL WEATHER SERVICE SEATTLE WA
900 PM PST MON FEB 18 2019

NOTE:"FAIR" INDICATES FEW OR NO CLOUDS BELOW 12,000 FEET WITH NO 
SIGNIFICANT WEATHER AND/OR OBSTRUCTIONS TO VISIBILITY.

WAZ507-509-555>559-190600-
SEATTLE, TACOMA, EVERETT, AND VICINITY
  
CITY           SKY/WX    TMP DP  RH WIND       PRES   REMARKS
EVERETT        CLOUDY    37  34  89 CALM      30.32F                  
BOEING FIELD   LGT RAIN  39  36  89 SE3       30.34F                  
RENTON         CLOUDY    39  35  86 CALM      30.34F                  
SEATAC AIRPORT LGT RAIN  40  35  83 SE5       30.32F                  
JBLM-MCCHORD   CLOUDY    38  38 100 S6        30.33F                  
PUYALLUP       DRIZZLE   37  37 100 CALM      30.33F                  
BREMERTON      MOCLDY    35  34  96 CALM      30.32S                  
JBLM-FT LEWIS  NOT AVBL                                               
TACOMA NARROWS CLOUDY    40  35  83 S6        30.32F                  
$$
 
WAZ001-503-506-510-514-515-190600-
NORTH INTERIOR
  
CITY           SKY/WX    TMP DP  RH WIND       PRES   REMARKS
BELLINGHAM     CLOUDY    32  22  66 CALM      30.35R                  
FRIDAY HARBOR  CLOUDY    39  32  76 CALM      30.35R                  
EASTSOUND      CLOUDY    37  34  87 CALM      30.35R                  
PORT ANGELES   CLOUDY    35  33  92 CALM      30.33R                  
EDIZ HOOK      CLOUDY    40  36  84 CALM      30.34R                  
PORT TOWNSEND  CLOUDY    37  36  93 CALM      30.33S                  
NAS WHIDBEY    NOT AVBL                                               
ARLINGTON      CLOUDY    34  32  92 CALM      30.35S                  
BURLINGTON     CLOUDY    36  28  75 CALM      30.35R                  
$$
 
WAZ020-022-039-040-504-511-512-190600-
SOUTHWEST INTERIOR
  
CITY           SKY/WX    TMP DP  RH WIND       PRES   REMARKS
SHELTON        PTCLDY    32  29  88 CALM      30.31F                  
OLYMPIA        CLOUDY    38  35  89 S6        30.33F                  
CHEHALIS       CLOUDY    39  39 100 CALM      30.34F                  
KELSO          CLOUDY    39  37  92 SE5       30.38F                  
VANCOUVER      CLOUDY    40  36  86 CALM      30.38S                  
SCAPPOOSE, OR  CLOUDY    39  36  89 CALM      30.38S FOG              
PORTLAND, OR   CLOUDY    40  34  79 CALM      30.39S                  
$$
 
WAZ021-516-517-190600-
WASHINGTON COAST
  
CITY           SKY/WX    TMP DP  RH WIND       PRES   REMARKS
FORKS          CLOUDY    38  35  89 CALM      30.34R                  
HOQUIAM        MOCLDY    41  37  86 CALM      30.34F                  
ASTORIA, OR    PTCLDY    38  37  97 S5        30.36F                  
$$
 
WAZ019-023-024-040-567>569-190600-
CASCADE MOUNTAINS AND COLUMBIA GORGE
  
CITY           SKY/WX    TMP DP  RH WIND       PRES   REMARKS
STAMPEDE PASS  FOG       26  23  88 VRB6      30.15F VSB 1/2          
TROUTDALE, OR  CLOUDY    41  35  79 CALM      30.39R                  
HOOD RIVER, OR PTCLDY    36  32  87 W9G18     30.33R                  
THE DALLES, OR CLEAR     29  25  85 SE5       30.33R                  
$$

WAZ026-027-041>044-520-521-190600-
EAST SLOPES
  
CITY           SKY/WX    TMP DP  RH WIND       PRES   REMARKS
OMAK           PTCLDY    20  14  77 S5        30.28S                  
WENATCHEE      CLOUDY    21  12  68 SE6       30.26F                  
ELLENSBURG     CLEAR     17  12  80 E5        30.23F                  
YAKIMA         PTCLDY    16  12  84 W8        30.29F                  
SUNNYSIDE ARPT PTCLDY    18  15  90 CALM      30.31                   
YAKIMA TC      FAIR      19  16  88 CALM      30.25F                  
$$

WAZ028-034-035-190600-
COLUMBIA BASIN
  
CITY           SKY/WX    TMP DP  RH WIND       PRES   REMARKS
EPHRATA        CLOUDY    16  10  77 CALM      30.27F                  
MOSES LAKE     MOCLDY   N/A N/A N/A NE6       30.30S                  
PASCO          PTCLDY    20  17  88 NW6       30.34S                  
RICHLAND ARPT  PTCLDY    23  19  83 NW3       30.34                   
HERMISTON, OR  PTCLDY    30  24  78 N3        30.29S                  
$$

WAZ036>038-190600-
NORTHEAST WASHINGTON
  
CITY           SKY/WX    TMP DP  RH WIND       PRES   REMARKS
SPOKANE GEIGER MOCLDY    14   6  70 S3        30.22S                  
SPOKANE FELTS  CLOUDY    18  11  74 CALM      30.26S                  
FAIRCHILD AFB  PTCLDY    13   8  79 S3        30.19F                  
COEURDALENE,ID PTCLDY     2  -1  88 CALM      30.23S                  
DEER PARK      CLOUDY     7   5  91 CALM      30.23S                  
$$

WAZ029>033-190600-
SOUTHEAST WASHINGTON
  
CITY           SKY/WX    TMP DP  RH WIND       PRES   REMARKS
PULLMAN        CLOUDY    19  15  84 S3        30.22F                  
LEWISTON, ID   CLOUDY    26  19  74 CALM      30.29S                  
WALLA WALLA    CLOUDY    32  23  69 S3        30.27S                  
PENDLETON, OR  CLOUDY    30  25  81 SE5       30.25S                  
$$